Lid_Strength_Index
4 4 4 4 4 4 4 4 4 4 4 5 4 4 3 6 8 13 14 9 7 5 5 11 10 11 10 11 10 9 11 13 11 11 14 15 16 16 15 17 17 17 17 17 16
5 5 5 4 5 4 4 4 4 4 4 5 4 4 3 3 13 15 9 5 4 3 10 11 11 10 13 13 12 10 11 11 15 16 16 17 16 17 17 18 18 18 17 16 16
5 6 5 5 4 4 4 5 5 4 4 4 3 3 3 5 13 15 8 6 5 7 10 11 11 11 12 13 14 15 14 16 16 14 14 16 17 16 17 18 17 18 18 17 17
6 6 5 5 4 4 4 4 4 4 4 5 4 4 3 12 17 15 8 7 7 10 11 10 11 12 14 15 14 16 16 16 16 15 13 14 16 17 17 17 16 17 17 18 18
6 6 5 5 4 4 4 4 4 5 4 4 4 4 11 16 17 14 9 11 13 12 13 12 13 13 15 15 15 17 17 16 16 15 16 16 17 17 19 18 17 17 17 18 18
6 6 6 6 5 5 6 5 4 5 5 5 4 6 14 17 14 14 15 13 13 12 13 12 12 12 14 16 15 16 17 17 17 16 16 17 18 16 17 16 17 17 17 17 17
6 6 6 6 5 5 5 6 6 7 6 6 7 12 15 17 14 14 13 13 13 13 13 13 12 12 14 16 15 15 16 16 17 17 16 16 18 18 17 17 18 18 18 18 18
6 5 5 5 4 4 4 5 5 5 5 7 8 14 18 13 13 14 14 13 12 12 13 13 12 13 14 15 15 16 16 17 17 17 16 16 17 17 16 17 18 18 18 17 17
5 5 5 5 4 4 4 6 5 6 6 8 14 15 18 12 14 14 14 14 14 13 13 12 14 16 15 17 18 18 19 19 17 18 18 17 18 17 16 16 18 18 18 17 17
5 5 6 5 4 4 4 6 7 9 11 12 13 17 16 17 15 14 14 14 15 14 14 15 16 17 19 18 21 19 20 19 19 19 19 20 19 17 16 17 18 18 18 18 17
5 6 6 6 5 5 8 12 14 15 16 18 18 18 16 15 14 15 15 15 15 16 19 18 19 20 22 21 21 19 20 21 21 19 20 20 20 19 17 18 18 19 19 18 17
6 6 6 6 5 6 12 14 15 15 19 16 17 17 16 16 17 16 14 17 17 20 19 19 22 22 20 19 20 20 21 22 21 19 20 21 21 19 18 17 17 18 18 18 18
6 6 6 5 7 11 14 14 11 14 18 17 16 17 17 16 18 17 16 17 19 20 21 21 21 18 18 20 19 21 21 23 21 20 21 22 22 21 20 18 17 17 16 17 17
7 6 5 5 10 14 14 12 10 12 21 17 17 17 16 16 18 16 16 18 19 21 21 21 20 18 20 20 19 20 20 20 20 21 23 22 24 22 21 20 18 17 18 17 17
7 6 5 5 12 14 13 11 11 13 26 18 17 15 16 17 18 17 16 17 20 20 21 22 22 21 21 20 19 20 19 20 19 22 23 23 23 22 21 20 19 17 16 17 16
6 7 7 10 12 13 11 12 13 19 25 21 18 18 19 18 18 17 18 17 18 20 20 21 20 21 21 19 19 18 19 19 21 22 26 24 23 22 21 20 18 16 16 16 16
7 7 9 11 13 12 11 14 20 24 20 22 21 19 19 20 19 19 20 21 22 24 23 22 22 21 19 21 19 19 22 25 26 27 25 23 24 20 18 18 17 17 15 15 15
7 9 11 12 13 12 13 17 25 24 25 19 19 19 21 20 21 20 21 24 22 22 26 25 24 22 20 21 22 21 23 24 28 26 24 22 24 19 18 17 17 16 16 15 15
9 14 14 13 12 13 15 23 22 22 19 20 20 22 25 21 22 23 23 25 24 23 23 26 24 22 19 20 21 22 23 21 27 28 26 22 20 17 16 17 17 16 16 16 15
14 14 14 13 13 14 18 19 22 18 18 19 22 22 28 28 24 24 24 24 21 20 23 22 26 21 20 21 21 21 20 23 24 28 30 24 25 20 17 17 17 17 16 16 16
14 15 14 13 13 16 22 24 22 17 18 19 20 25 23 25 26 28 24 22 23 21 20 26 23 24 21 24 23 24 24 23 23 24 26 27 22 21 19 17 17 17 16 16 16
15 19 14 14 19 28 25 23 16 18 18 18 20 20 22 23 27 28 25 22 21 21 21 22 25 28 25 23 22 23 24 23 24 26 27 25 23 17 17 16 16 16 14 16 16
17 18 15 14 22 25 25 21 19 20 19 20 20 19 20 21 24 23 22 20 20 21 24 23 26 30 25 25 23 27 22 21 23 23 27 26 21 17 17 16 16 15 15 15 16
18 20 19 18 20 20 24 23 22 18 20 20 21 21 21 22 21 26 21 19 19 19 16 19 31 26 25 24 26 29 28 21 24 28 24 22 19 16 17 16 17 16 15 16 15
19 21 22 22 21 24 22 21 21 21 21 19 21 23 23 27 26 25 22 22 20 17 20 23 28 31 29 25 26 26 28 24 24 21 23 18 19 21 18 18 17 17 16 15 15
20 20 24 28 24 23 23 22 20 20 22 23 24 21 23 24 22 24 24 23 22 23 25 27 30 32 30 24 23 26 26 25 21 21 21 20 21 15 15 19 18 16 16 15 15
19 19 18 21 27 23 22 20 19 19 20 19 21 21 21 21 22 23 21 20 21 22 24 28 30 32 30 25 25 27 27 23 23 26 20 22 17 19 20 18 17 16 16 16 15